St. Clothilde, Quebec

12:46 AM EST on November 18, 2017 (GMT -0500)
St. Clothilde

Weather History for CWIT - November, 2013

Change the Weather History Date:

Thursday, November 21, 2013

  Actual Average Record
Temperature  
Mean Temperature 29 °F -  
Max Temperature 39 °F - - ()
Min Temperature 19 °F - - ()
Degree Days  
Heating Degree Days 36    
Moisture  
Dew Point 23 °F    
Average Humidity 79    
Maximum Humidity 94    
Minimum Humidity 42    
Precipitation  
Precipitation 0.00 in - - ()
Sea Level Pressure  
Sea Level Pressure 30.47 in    
Wind  
Wind Speed 2 mph ()    
Max Wind Speed 6 mph    
Max Gust Speed -    
T = Trace of Precipitation, MM = Missing Value Source: Averaged Metar Reports

Daily Weather History Graph

Daily Weather History Graph

Search for Another Location

Airport or City:

Trip Planner

Search our weather history database for the weather conditions in past years. The results will help you decide how hot, cold, wet, or windy it might be!

Date:

Astronomy

Nov. 21, 2013 Rise Set
Actual Time 7:01 AM EST 4:19 PM EST
Civil Twilight 6:28 AM EST 4:52 PM EST
Nautical Twilight 5:52 AM EST 5:28 PM EST
Astronomical Twilight 5:17 AM EST 6:03 PM EST
Moon 7:55 PM EST (11/21) 10:04 AM EST (11/21)
Length of Visible Light 10h 23m
Length of Day
9h 18m
Waning Gibbous, 85% of the Moon is Illuminated
Nov 21
Waning Gibbous
Nov 25
Last Quarter
Dec 2
New
Dec 9
First Quarter
Dec 17
Full

Hourly Weather History & Observations

Time (EST) Temp. Windchill Dew Point Humidity Pressure Visibility Wind Dir Wind Speed Gust Speed Precip Events Conditions
12:00 AM 21.0 °F - 19.6 °F 94% 30.61 in - Calm Calm - N/A   Unknown
1:00 AM 20 °F - 18 °F 89% 30.60 in - Calm Calm - -  
1:00 AM 19.8 °F - 18.1 °F 93% 30.60 in - Calm Calm - N/A   Unknown
2:00 AM 20.5 °F - 18.7 °F 93% 30.59 in - SE 1.2 mph - N/A   Unknown
3:00 AM 22.1 °F 15.9 °F 19.6 °F 90% 30.57 in - ESE 4.6 mph - N/A   Unknown
4:00 AM 21.6 °F - 19.0 °F 90% 30.54 in - ESE 2.3 mph - N/A   Unknown
5:00 AM 23.4 °F 16.2 °F 20.3 °F 88% 30.53 in - ESE 5.8 mph - N/A   Unknown
6:00 AM 24.6 °F 18.8 °F 22.6 °F 92% 30.52 in - ESE 4.6 mph - N/A   Unknown
7:00 AM 22 °F - 20 °F 89% 30.53 in - SE 2.3 mph - -  
7:00 AM 22.1 °F - 20.1 °F 92% 30.53 in - SE 2.3 mph - N/A   Unknown
8:00 AM 25.2 °F - 22.6 °F 90% 30.52 in - ESE 1.2 mph - N/A   Unknown
9:00 AM 29.7 °F 26.1 °F 22.6 °F 75% 30.51 in - SE 3.5 mph - N/A   Unknown
10:00 AM 32.0 °F 27.5 °F 22.6 °F 68% 30.51 in - SSE 4.6 mph - N/A   Unknown
11:00 AM 34.7 °F 31.8 °F 22.3 °F 61% 30.49 in - SE 3.5 mph - N/A   Unknown
12:00 PM 36.5 °F - 20.8 °F 53% 30.46 in - East 1.2 mph - N/A   Unknown
1:00 PM 38 °F - 23 °F 42% 30.43 in - East 3.5 mph - -  
1:00 PM 38.5 °F 36.1 °F 23.2 °F 54% 30.43 in - East 3.5 mph - N/A   Unknown
2:00 PM 38.7 °F 35.2 °F 23.9 °F 55% 30.39 in - ESE 4.6 mph - N/A   Unknown
3:00 PM 37.9 °F 35.5 °F 25.3 °F 60% 30.38 in - SE 3.5 mph - N/A   Unknown
4:00 PM 36.1 °F - 25.2 °F 64% 30.38 in - SSE 2.3 mph - N/A   Unknown
5:00 PM 33.1 °F - 26.6 °F 77% 30.38 in - North 1.2 mph - N/A   Unknown
6:00 PM 31.6 °F - 26.6 °F 82% 30.39 in - West 2.3 mph - N/A   Unknown
7:00 PM 32 °F - 27 °F 75% 30.38 in - Calm Calm - -  
7:00 PM 31.8 °F - 27.1 °F 83% 30.38 in - Calm Calm - N/A   Unknown
8:00 PM 31.5 °F - 28.4 °F 88% 30.37 in - Calm Calm - N/A   Unknown
9:00 PM 31.8 °F - 28.2 °F 87% 30.36 in - Calm Calm - N/A   Unknown
10:00 PM 31.6 °F - 28.2 °F 87% 30.33 in - Calm Calm - N/A   Unknown
11:00 PM 31.5 °F - 28.2 °F 88% 30.32 in - West 1.2 mph - N/A   Unknown